Regional Weather Roundup
Issued by NWS

Home | Current Version | Previous Version | Graphics & Text | Print | Product List | Glossary On
Versions: 1 2 3 4 5 6 7 8 9 10 11 12 13 14 15 16 17 18 19 20 21 22 23 24 25 26 27 28 29 30 31 32 33 34 35 36 37 38 39 40 41 42 43 44 45 46 47 48 49 50
429
ASUS43 KOAX 280302
RWRNE

WEATHER ROUNDUP FOR NEBRASKA
NATIONAL WEATHER SERVICE OMAHA NE
1000 PM CDT MON MAR 27 2017

NOTES: SATELLITE DATA IS BEING USED TO AUGMENT CLOUD COVER ABOVE
       12000 FEET.
       "FAIR" INDICATES FEW OR NO CLOUDS BELOW 12,000 FEET WITH NO
       SIGNIFICANT WEATHER AND/OR OBSTRUCTIONS TO VISIBILITY.

  * THESE STATIONS DO NOT REPORT WEATHER SUCH AS RAIN...SNOW OR FOG.

NEZ001>004-019>022-054>056-280400-
NEBRASKA PANHANDLE

CITY           SKY/WX    TMP DP  RH WIND       PRES   REMARKS
SCOTTSBLUFF    CLOUDY    58  34  40 E10       29.84R
ALLIANCE       CLOUDY    53  36  52 SE8       29.84R
CHADRON        CLOUDY    49  37  63 N9        29.85R
KIMBALL        CLOUDY    54  35  48 SE13      29.83S
SIDNEY         PTCLDY    52  33  48 SE13      29.85R
$$

NEZ057>060-069>072-079>082-280400-
SOUTHWEST NEBRASKA

CITY           SKY/WX    TMP DP  RH WIND       PRES   REMARKS
NORTH PLATTE   CLEAR     46  40  79 E9        29.90R
IMPERIAL       CLEAR     50  41  71 SE16      29.88R
LEXINGTON      CLOUDY    48  42  79 SE10      29.95R
MCCOOK         CLOUDY    51  41  68 E10       29.92R
OGALLALA       CLEAR     53  43  69 SE9       29.88R
$$

NEZ005>010-023>029-035>040-094-280400-
NORTH CENTRAL NEBRASKA

CITY           SKY/WX    TMP DP  RH WIND       PRES   REMARKS
VALENTINE      CLOUDY    54  39  57 SE14      29.91R
AINSWORTH      CLOUDY    52  44  73 SE6       29.92R
BROKEN BOW     PTCLDY    48  42  80 SE8       29.93R
O`NEILL        MOCLDY    49  39  68 E7        29.96R
ORD            CLEAR     49  40  71 SE8       29.95R
THEDFORD       CLEAR     47  41  78 SE6       29.91R
$$

NEZ041-046>049-061>064-073>077-083>087-280400-
SOUTH CENTRAL NEBRASKA

CITY           SKY/WX    TMP DP  RH WIND       PRES   REMARKS
GRAND ISLAND   CLOUDY    41  40  96 S7        29.98R
AURORA         CLOUDY    43  41  93 S5        29.99R
HASTINGS       CLOUDY    44  40  85 SE7       29.99R
HEBRON         CLOUDY    49  42  78 CALM      30.00R
HOLDREGE       CLOUDY    44  40  88 SE10      29.96R
KEARNEY *      CLOUDY    43  37  81 SE8       29.98R
YORK           CLOUDY    41  41 100 CALM      29.99R
$$

NEZ011>018-030>034-042>045-280400-
NORTHEAST NEBRASKA

CITY           SKY/WX    TMP DP  RH WIND       PRES   REMARKS
NORFOLK        CLEAR     43  38  82 SE8       29.98R
ALBION         CLEAR     46  39  78 CALM      29.97R
FREMONT        CLEAR     43  39  88 CALM      30.00R
TEKAMAH        PTCLDY    43  39  86 E8        30.00R
WAYNE          CLEAR     43  40  90 SE8       29.98R
$$

NEZ050>053-065>068-078-088>093-280400-
SOUTHEAST NEBRASKA

CITY           SKY/WX    TMP DP  RH WIND       PRES   REMARKS
LINCOLN        CLOUDY    43  38  82 CALM      30.01R
OMAHA EPPLEY   CLOUDY    49  40  71 E6        29.99R
BEATRICE       CLOUDY    44  40  88 E5        29.99R
FALLS CITY     CLOUDY    47  40  76 N5        30.00R
NEBRASKA CITY  CLOUDY    47  41  80 CALM      30.00R
PLATTSMOUTH    CLOUDY    48  39  70 CALM      30.00R
$$

NEZ044-045-051>053-067-280400-
OMAHA AREA

CITY           SKY/WX    TMP DP  RH WIND       PRES   REMARKS
OMAHA EPPLEY   CLOUDY    49  40  71 E6        29.99R
FREMONT        CLEAR     43  39  88 CALM      30.00R
MILLARD        CLOUDY    51  42  70 E3        30.00R
OFFUTT AFB     CLOUDY    49  41  74 NE6       29.99R
PLATTSMOUTH    CLOUDY    48  39  70 CALM      30.00R
WAHOO          FAIR      42  38  88 SE5       30.00R
$$




USA.gov is the U.S. government's official web portal to all federal, state and local government web resources and services.